Wind_Speed
5 5 5 6 6 6 6 6 6 6 5 5 6 6 6 6 7 7 7 6 7 7 7 8 8 8 9 9 9 9 9 9 10 11 12 12 13 13 13 14 14 15 16
6 6 7 7 7 7 7 7 7 7 6 6 7 6 6 6 7 7 7 7 7 7 8 8 8 9 9 9 9 10 10 11 11 12 13 13 13 14 14 15 15 16 18
7 7 7 7 7 7 7 7 7 8 7 7 7 7 7 6 6 6 6 7 7 7 8 8 9 9 10 10 10 11 11 12 13 14 14 14 14 15 16 16 17 18 19
8 8 7 8 8 8 7 7 8 8 8 7 7 8 8 7 7 8 8 8 8 8 9 9 10 10 11 11 11 11 12 13 14 15 15 16 16 17 18 19 19 20 21
9 9 9 9 8 8 9 8 8 8 8 7 8 8 8 8 8 9 10 9 9 10 11 11 12 12 12 12 12 12 13 14 15 16 17 18 18 19 21 21 21 22 23
10 10 10 10 10 9 9 9 9 9 8 8 8 8 9 9 9 10 10 11 11 12 12 13 13 13 13 13 13 14 15 16 16 17 18 19 20 21 22 23 23 23 24
11 11 11 11 11 10 10 10 9 9 9 9 9 10 10 10 10 11 11 12 13 13 14 14 14 14 14 14 15 16 17 18 18 19 20 21 21 22 23 24 24 25 25
13 12 12 12 11 11 11 11 11 11 10 11 11 11 11 11 12 12 13 14 14 14 14 15 15 16 16 17 17 18 18 19 20 20 21 22 22 23 24 25 25 26 26
14 13 13 13 13 13 12 12 12 12 12 12 12 12 13 13 13 13 14 14 14 15 16 16 17 17 18 19 20 20 20 21 22 23 23 24 25 26 26 26 27 27 28
15 15 15 15 14 14 14 14 14 14 13 14 14 15 14 14 15 15 15 15 16 16 17 17 18 18 19 20 21 21 22 23 24 25 25 26 27 27 28 28 28 29 29
17 17 16 16 15 15 15 15 15 15 15 15 16 16 16 16 16 17 17 17 17 17 17 18 19 20 21 21 23 24 24 25 26 26 27 27 28 28 29 29 29 30 30
18 17 17 17 16 16 16 16 16 16 16 16 16 16 17 17 18 18 18 18 18 19 20 20 21 22 23 24 25 26 26 27 27 28 28 29 29 29 29 30 30 30 31
19 19 19 18 18 18 18 18 18 17 18 18 18 18 18 19 19 19 19 20 20 21 22 23 24 25 25 26 27 27 27 28 29 29 29 29 29 29 30 30 31 31 32
21 21 21 20 20 20 20 20 20 20 20 20 20 20 21 21 21 21 22 22 22 23 24 25 26 26 27 28 28 29 29 30 30 30 30 30 30 30 31 31 32 31 32
23 23 22 22 22 21 22 21 21 22 22 22 22 22 22 22 23 24 24 24 25 25 26 26 27 28 28 28 29 29 30 30 30 31 31 31 31 32 32 33 33 33 33
24 24 24 24 24 24 24 24 24 23 23 23 23 24 24 24 25 25 26 26 27 28 28 28 28 29 29 29 30 30 30 30 31 31 32 32 32 32 33 33 34 34 35
26 26 26 26 26 26 25 25 25 25 25 25 25 26 26 26 27 27 28 28 29 29 29 29 29 29 29 30 30 30 30 31 32 32 33 33 33 33 34 35 36 36 36
27 27 27 27 27 27 26 27 27 27 27 27 28 28 29 29 29 29 30 30 30 30 30 30 30 30 30 30 30 30 31 32 32 33 33 33 34 35 36 36 37 37 37
28 28 28 28 28 28 28 28 28 28 28 29 29 29 30 30 31 31 32 31 30 30 30 30 30 31 31 31 31 31 32 33 33 34 34 34 35 36 37 38 37 37 37
28 29 29 29 29 28 28 29 29 29 29 29 29 30 30 31 31 31 31 31 30 30 30 30 31 31 31 31 32 32 33 34 34 35 35 36 37 38 38 38 37 37 37
30 30 30 30 30 30 30 29 29 30 29 29 29 30 30 30 31 30 30 30 30 31 31 32 32 32 32 32 33 33 34 34 35 35 36 37 37 37 37 37 37 37 37
32 31 31 31 31 31 31 31 30 29 29 29 30 30 30 31 31 31 31 31 32 32 33 33 33 33 33 34 34 34 35 35 35 36 36 37 37 37 36 36 37 37 37
33 33 33 32 32 32 31 31 31 30 31 31 31 31 31 32 32 32 32 32 32 33 33 33 34 34 34 35 35 35 36 36 36 36 37 37 37 37 36 36 36 37 37
34 34 33 33 33 33 32 32 32 32 32 32 32 32 33 32 32 32 32 33 33 33 33 33 34 34 35 35 35 36 36 36 36 36 36 36 36 36 36 36 37 37 36
34 34 34 34 34 34 33 33 33 33 33 33 33 33 33 33 32 32 32 33 33 34 34 34 34 35 35 36 36 36 37 36 36 36 36 36 36 36 36 37 37 36 36
34 34 35 35 35 35 34 34 34 34 33 34 34 34 33 33 33 33 33 33 34 34 35 35 35 35 35 36 36 36 36 36 35 35 36 36 36 36 36 36 36 36 35
Wind_Direction
289 285 282 282 278 283 287 285 289 290 286 285 288 290 284 281 286 286 282 281 283 286 286 288 291 292 294 292 289 290 292 294 294 295 295 295 297 300 300 302 301 302 303
289 285 281 281 281 284 286 286 285 283 281 283 282 284 288 287 288 289 285 284 288 291 291 292 294 294 296 294 291 290 292 295 296 298 298 298 300 301 301 301 301 301 301
291 285 280 277 278 281 285 290 291 288 284 284 277 283 287 294 294 291 292 290 293 294 294 295 296 296 298 297 294 292 292 293 295 297 299 300 301 301 300 299 299 299 300
291 286 282 278 279 277 279 285 291 290 284 282 281 285 288 292 294 293 295 291 291 294 296 294 296 298 297 297 296 295 294 293 293 295 297 299 300 301 301 300 300 300 300
290 285 286 281 278 278 277 280 285 288 285 283 287 286 285 287 288 292 295 294 292 294 295 294 295 296 297 298 297 297 297 298 298 297 298 300 300 301 302 301 301 301 301
286 284 283 278 277 277 276 278 281 285 282 281 283 286 287 286 285 289 291 293 292 293 295 294 293 296 297 296 297 298 299 299 301 302 302 301 301 302 302 302 302 302 302
283 284 279 277 275 274 277 280 280 277 277 280 281 283 287 288 287 288 291 292 292 293 295 296 294 294 295 295 297 298 298 300 302 303 303 303 302 302 302 302 302 302 303
280 279 277 277 274 276 276 278 278 275 274 278 281 282 285 287 287 288 289 290 291 293 294 296 295 294 295 297 297 297 299 300 301 302 303 303 304 303 302 302 303 304 304
278 278 274 275 275 275 277 277 277 274 275 276 279 283 285 285 286 287 288 289 290 292 294 295 295 296 296 298 298 298 299 300 301 301 301 302 302 302 302 301 302 302 303
276 277 275 273 273 274 275 276 275 276 275 277 280 282 284 285 287 286 285 288 290 292 294 296 297 298 298 298 298 299 299 299 299 300 300 300 300 301 301 301 301 301 301
276 275 274 273 272 273 275 277 276 275 274 277 279 281 282 284 286 286 286 287 290 292 295 297 297 298 299 299 300 301 301 300 300 300 301 301 300 300 300 300 301 302 301
273 273 272 271 271 271 273 275 276 275 275 277 279 281 281 282 284 285 286 288 290 292 295 297 298 299 299 300 302 302 301 301 301 301 301 301 300 300 300 300 301 302 302
270 269 270 270 270 271 272 274 274 274 276 276 276 277 279 281 284 285 285 287 290 293 294 296 297 298 299 299 300 301 301 301 301 301 301 300 300 300 300 300 301 301 301
269 269 270 270 270 271 271 271 272 273 274 274 276 277 279 281 283 283 285 286 288 291 294 296 298 298 298 298 298 300 300 301 301 301 301 301 301 301 301 302 302 301 301
270 269 269 269 269 270 271 271 271 274 275 274 274 277 280 282 283 284 284 286 288 290 292 294 296 297 298 298 299 300 301 300 300 301 301 301 301 301 301 301 302 301 301
270 268 268 269 270 271 271 271 271 273 275 276 275 277 280 282 283 285 286 287 288 289 290 292 294 296 297 298 299 300 300 301 301 301 302 302 301 301 300 301 301 301 301
268 268 268 269 270 271 270 270 271 272 273 275 276 278 279 282 283 285 287 288 289 289 290 291 292 294 296 298 299 300 300 301 302 302 302 302 301 301 301 301 301 301 301
266 267 268 269 269 270 269 270 271 272 273 275 277 278 280 282 282 284 286 287 288 288 289 290 291 293 295 297 298 299 300 301 302 303 302 301 301 302 302 302 301 300 300
265 266 267 268 269 269 269 270 272 273 275 277 279 280 281 282 282 283 285 286 287 287 288 288 289 292 294 297 298 299 300 301 302 302 302 303 303 303 304 303 301 300 299
267 268 267 267 268 269 270 271 272 274 276 278 279 280 281 282 283 284 285 286 287 287 288 288 289 291 294 296 297 298 300 301 301 302 302 303 304 305 304 303 302 300 300
268 269 268 268 268 268 269 271 272 274 276 278 280 281 281 283 284 284 284 285 286 286 287 287 288 290 292 294 296 297 299 300 301 303 303 304 305 305 304 304 303 302 301
268 268 269 269 269 269 270 271 272 274 276 278 280 282 283 284 285 285 285 285 285 285 287 288 288 290 292 294 296 297 299 300 301 303 304 305 306 306 305 305 305 304 303
267 268 268 268 268 269 270 271 273 275 277 278 279 281 283 284 285 286 285 285 286 287 286 288 289 290 292 294 296 297 299 300 301 302 304 305 305 306 306 305 304 305 304
266 267 267 267 268 269 271 272 273 275 277 277 278 280 282 284 285 286 286 286 286 286 286 288 289 289 291 293 295 297 299 300 301 302 304 305 305 306 307 306 305 304 305
266 266 266 267 267 268 270 271 273 275 276 277 279 280 281 283 285 286 286 287 287 286 286 287 288 290 291 293 295 297 298 299 300 301 303 305 305 306 307 307 306 305 305
265 266 267 268 267 267 269 270 272 274 276 277 278 279 281 283 284 285 286 287 287 287 286 287 288 290 291 293 295 296 297 298 299 301 303 305 305 306 306 308 308 307 307
Height
5835 5835 5835 5835 5835 5835 5835 5835 5835 5835 5835 5835 5835 5835 5835 5835 5835 5835 5835 5835 5835 5835 5835 5834 5834 5834 5834 5833 5833 5832 5832 5832 5831 5831 5830 5829 5828 5827 5826 5825 5824 5822 5821
5834 5834 5834 5834 5834 5834 5834 5834 5834 5834 5834 5834 5834 5834 5834 5834 5834 5834 5833 5833 5833 5833 5833 5833 5832 5832 5831 5831 5830 5830 5829 5829 5829 5828 5827 5826 5825 5824 5823 5822 5820 5819 5817
5833 5833 5832 5832 5832 5832 5832 5832 5832 5832 5832 5832 5832 5832 5832 5832 5832 5832 5832 5832 5831 5831 5831 5831 5830 5830 5829 5828 5828 5827 5826 5826 5826 5825 5824 5823 5822 5820 5819 5818 5816 5814 5812
5831 5831 5831 5831 5830 5830 5830 5830 5830 5830 5830 5830 5830 5830 5830 5831 5830 5830 5830 5830 5829 5829 5829 5828 5828 5827 5826 5826 5825 5824 5823 5823 5822 5821 5820 5819 5818 5816 5815 5813 5811 5809 5807
5829 5829 5828 5828 5828 5828 5828 5829 5828 5828 5828 5828 5829 5829 5829 5829 5828 5828 5828 5828 5827 5827 5826 5826 5825 5824 5823 5822 5822 5821 5820 5819 5818 5817 5816 5815 5813 5812 5810 5808 5806 5804 5801
5827 5826 5826 5826 5826 5826 5826 5826 5826 5826 5826 5826 5826 5826 5827 5826 5826 5826 5826 5825 5825 5824 5823 5823 5822 5821 5820 5819 5818 5817 5816 5815 5814 5813 5811 5809 5808 5806 5804 5802 5800 5798 5796
5824 5824 5824 5824 5824 5824 5824 5824 5824 5824 5824 5824 5824 5824 5824 5824 5823 5823 5823 5822 5822 5821 5820 5819 5818 5817 5816 5815 5814 5813 5812 5811 5809 5808 5806 5804 5802 5800 5798 5796 5793 5791 5788
5821 5821 5821 5821 5821 5821 5821 5821 5821 5821 5821 5821 5821 5821 5821 5821 5820 5820 5819 5819 5818 5817 5817 5816 5815 5813 5812 5811 5810 5809 5807 5806 5804 5802 5800 5798 5796 5793 5791 5789 5786 5783 5781
5818 5818 5818 5818 5818 5818 5818 5818 5818 5818 5818 5818 5818 5818 5817 5817 5817 5816 5816 5815 5815 5814 5813 5812 5810 5809 5808 5807 5805 5804 5802 5800 5798 5796 5794 5792 5789 5787 5784 5781 5779 5776 5774
5814 5813 5814 5814 5814 5814 5814 5814 5814 5814 5814 5814 5814 5814 5813 5813 5813 5812 5812 5811 5810 5810 5809 5807 5806 5804 5803 5801 5800 5798 5796 5794 5792 5790 5787 5785 5782 5779 5776 5774 5771 5768 5765
5809 5809 5809 5810 5810 5810 5810 5810 5810 5810 5810 5810 5810 5810 5809 5809 5808 5808 5807 5806 5805 5804 5804 5802 5801 5799 5797 5795 5793 5791 5789 5787 5785 5782 5780 5777 5774 5771 5768 5765 5762 5759 5756
5804 5804 5804 5805 5805 5805 5805 5805 5805 5805 5805 5805 5805 5805 5805 5804 5804 5803 5802 5801 5800 5799 5798 5797 5795 5793 5791 5789 5787 5784 5782 5780 5777 5774 5772 5769 5766 5763 5760 5757 5754 5750 5747
5799 5799 5799 5799 5800 5800 5800 5800 5800 5800 5800 5800 5800 5800 5799 5799 5798 5797 5797 5796 5795 5793 5792 5790 5788 5786 5784 5782 5780 5777 5774 5772 5769 5766 5764 5761 5758 5755 5752 5748 5745 5742 5738
5792 5793 5793 5793 5794 5794 5794 5795 5795 5795 5794 5794 5794 5794 5793 5793 5792 5791 5790 5789 5788 5787 5785 5783 5782 5779 5777 5775 5772 5769 5767 5764 5761 5758 5755 5752 5749 5746 5742 5739 5736 5733 5729
5786 5786 5787 5787 5787 5788 5788 5788 5788 5788 5788 5788 5787 5787 5787 5786 5785 5784 5783 5782 5781 5780 5778 5776 5774 5772 5770 5767 5764 5761 5759 5755 5752 5749 5746 5743 5740 5736 5733 5730 5726 5723 5719
5778 5779 5779 5780 5780 5781 5781 5781 5781 5781 5781 5780 5780 5780 5779 5779 5778 5777 5776 5775 5773 5772 5770 5768 5766 5764 5761 5759 5756 5753 5750 5747 5744 5740 5737 5733 5730 5726 5723 5720 5716 5712 5709
5771 5771 5772 5772 5773 5773 5773 5773 5774 5774 5773 5773 5772 5772 5772 5771 5770 5769 5768 5766 5765 5763 5761 5760 5758 5755 5753 5750 5747 5744 5741 5738 5735 5731 5727 5724 5720 5716 5713 5709 5705 5702 5698
5762 5763 5763 5764 5764 5764 5765 5765 5765 5765 5765 5765 5764 5763 5763 5762 5761 5760 5759 5758 5756 5754 5752 5750 5748 5746 5744 5741 5739 5736 5732 5729 5725 5721 5718 5714 5710 5706 5702 5698 5694 5690 5686
5753 5754 5754 5755 5755 5755 5756 5756 5756 5756 5756 5756 5755 5755 5754 5753 5752 5751 5749 5748 5747 5745 5743 5741 5739 5737 5735 5732 5729 5726 5723 5719 5715 5712 5708 5704 5700 5695 5691 5687 5682 5678 5674
5744 5745 5745 5746 5746 5746 5747 5747 5747 5747 5747 5747 5746 5746 5745 5744 5743 5741 5740 5739 5737 5735 5733 5731 5729 5727 5725 5722 5719 5716 5713 5709 5705 5701 5697 5693 5689 5684 5679 5675 5671 5667 5663
5735 5735 5736 5736 5737 5737 5738 5738 5738 5738 5738 5737 5737 5736 5735 5734 5733 5732 5730 5729 5727 5726 5724 5722 5720 5717 5715 5712 5709 5706 5702 5699 5695 5691 5686 5682 5677 5673 5668 5664 5660 5655 5651
5725 5726 5726 5727 5727 5728 5728 5728 5729 5728 5728 5728 5727 5726 5725 5724 5723 5722 5720 5718 5717 5715 5713 5711 5709 5707 5704 5701 5698 5695 5691 5688 5684 5680 5675 5671 5666 5662 5658 5653 5649 5645 5641
5715 5716 5716 5717 5717 5718 5718 5718 5718 5718 5718 5718 5717 5716 5715 5714 5712 5711 5709 5708 5706 5704 5702 5700 5698 5696 5693 5690 5687 5684 5680 5677 5673 5668 5664 5660 5656 5651 5647 5643 5638 5634 5630
5704 5705 5706 5706 5707 5707 5708 5708 5708 5708 5708 5707 5706 5705 5704 5703 5701 5700 5698 5696 5695 5693 5691 5689 5687 5685 5682 5679 5676 5673 5669 5665 5661 5657 5653 5649 5645 5641 5636 5632 5627 5623 5619
5693 5694 5694 5695 5696 5696 5697 5697 5697 5697 5697 5696 5695 5694 5693 5692 5691 5689 5687 5685 5684 5682 5680 5678 5676 5673 5671 5668 5665 5662 5658 5654 5650 5646 5642 5639 5634 5630 5626 5621 5617 5612 5608
5682 5682 5683 5684 5684 5685 5685 5686 5686 5685 5685 5685 5684 5683 5682 5681 5679 5678 5676 5674 5672 5671 5669 5667 5664 5662 5659 5656 5653 5650 5647 5643 5640 5636 5632 5628 5624 5620 5615 5611 5606 5602 5598